Regional Weather Roundup
Issued by NWS Sioux Falls, SD

Home | Current Version | Previous Version | Text Only | Print | Product List | Glossary On
Versions: 1 2 3 4 5 6 7 8 9 10 11 12 13 14 15 16 17 18 19 20 21 22 23 24 25 26 27 28 29 30 31 32 33 34 35 36 37 38 39 40 41 42 43 44 45 46 47 48 49 50
000
ASUS43 KFSD 292202
RWRFSD

WEATHER ROUNDUP FOR SE SOUTH DAKOTA/SW MINNESOTA/NW IOWA
NATIONAL WEATHER SERVICE SIOUX FALLS SD
500 PM CDT WED JUL 29 2015

NOTE: "FAIR" INDICATES FEW OR NO CLOUDS BELOW 12,000 FEET WITH NO
SIGNIFICANT WEATHER AND OR OBSTRUCTIONS TO VISIBILITY.


SDZ038>040-050-052>070-292300-
SOUTHEAST SOUTH DAKOTA

CITY           SKY/WX    TMP DP  RH WIND       PRES   REMARKS
BROOKINGS      SUNNY     81  52  36 W18G24    30.08S
CHAMBERLAIN    NOT AVBL
HURON          SUNNY     85  48  27 NW18      30.05F
MADISON        FAIR      81  50  34 NW17G25   30.09S
MITCHELL       SUNNY     86  49  27 NW21      30.08F
SIOUX FALLS    MOSUNNY   83  51  33 W13G24    30.08F
WINNER         FAIR      88  42  20 NW15      30.14F
YANKTON        SUNNY     84  52  32 W15       30.10S
$$

MNZ071-072-080-081-089-090-097-098-292300-
SOUTHWEST MINNESOTA

CITY           SKY/WX    TMP DP  RH WIND       PRES   REMARKS
FAIRMONT       SUNNY     82  54  36 W22       30.04S
JACKSON        SUNNY     81  54  39 W18G30    30.07F
LUVERNE        SUNNY     82  52  34 W16       30.09S
MARSHALL       SUNNY     82  48  30 NW29G37   30.04S
MONTEVIDEO     SUNNY     84  54  34 NW18G26   30.01S
PIPESTONE      SUNNY     81  48  32 NW13G23   30.08F
REDWOOD FALLS  SUNNY     83  53  35 W18G29    30.00F
TRACY          SUNNY     81  52  36 W14G26    30.05S
WINDOM         SUNNY     82  50  32 W20G31    30.05S
WORTHINGTON    SUNNY     81  54  39 W18       30.08S
$$

IAZ001>003-012>014-020>022-031-032-NEZ013-014-SDZ071-292300-
NORTHWEST IOWA

CITY           SKY/WX    TMP DP  RH WIND       PRES   REMARKS
DENISON        SUNNY     81  61  50 W8        30.12S HAZE
ESTHERVILLE    SUNNY     80  56  43 W18G28    30.07F
SIOUX CITY     SUNNY     84  57  39 W8        30.11F
SPENCER        SUNNY     83  54  36 W23G31    30.09F
$$

ABBREVIATIONS USED IN REMARKS
   TC - TEMPERATURE IN CELSIUS
  WCI - WIND CHILL INDEX
   HX - HEAT INDEX
  VSB - VISIBILITY




USA.gov is the U.S. government's official web portal to all federal, state and local government web resources and services.